GFSMA_prec_pwat_195.txt.gz
Precipitable_Water
1.74 1.47 1.38 1.39 1.59 1.89 1.91 1.89 1.91 1.90 1.87 1.92 1.88 1.85 1.77 1.70 1.59 1.56 1.53 1.54 1.74 1.77 1.74 1.77 1.78 1.82 1.80 1.84 1.85 1.83 1.87 1.86 1.74 1.62 1.66 1.66 1.72 1.78 1.80 1.82 1.80 1.82 1.81
1.76 1.46 1.37 1.47 1.68 1.83 1.88 1.93 1.87 1.82 1.79 1.78 1.79 1.80 1.73 1.72 1.63 1.49 1.50 1.49 1.59 1.72 1.79 1.76 1.84 1.82 1.80 1.79 1.79 1.78 1.85 1.87 1.87 1.82 1.84 1.84 1.85 1.83 1.81 1.80 1.82 1.76 1.74
1.79 1.46 1.47 1.56 1.72 1.86 1.89 2.01 1.82 1.77 1.67 1.76 1.73 1.82 1.80 1.76 1.67 1.45 1.43 1.47 1.51 1.55 1.68 1.76 1.78 1.78 1.79 1.84 1.83 1.78 1.80 1.80 1.84 1.85 1.78 1.74 1.72 1.73 1.74 1.76 1.72 1.71 1.73
1.68 1.53 1.52 1.60 1.72 1.83 1.85 1.88 1.76 1.65 1.75 1.76 1.82 1.85 1.81 1.76 1.71 1.54 1.45 1.41 1.45 1.48 1.52 1.66 1.72 1.71 1.68 1.72 1.77 1.72 1.72 1.68 1.61 1.59 1.60 1.66 1.64 1.64 1.68 1.61 1.57 1.62 1.65
1.63 1.57 1.59 1.63 1.72 1.78 1.79 1.69 1.66 1.73 1.77 1.76 1.75 1.79 1.85 1.75 1.68 1.62 1.49 1.43 1.45 1.50 1.52 1.56 1.57 1.63 1.65 1.66 1.66 1.67 1.64 1.61 1.61 1.64 1.68 1.69 1.67 1.66 1.67 1.69 1.71 1.70 1.69
1.64 1.56 1.67 1.66 1.71 1.71 1.80 1.75 1.68 1.68 1.82 1.64 1.70 1.77 1.83 1.78 1.72 1.69 1.62 1.57 1.53 1.53 1.57 1.60 1.59 1.59 1.58 1.59 1.57 1.57 1.61 1.68 1.67 1.64 1.65 1.68 1.71 1.73 1.73 1.72 1.72 1.71 1.71
1.66 1.64 1.68 1.59 1.66 1.64 1.86 1.89 1.71 1.67 1.77 1.83 1.56 1.60 1.70 1.86 1.81 1.79 1.76 1.68 1.61 1.54 1.58 1.60 1.65 1.65 1.62 1.62 1.66 1.67 1.67 1.66 1.66 1.65 1.66 1.67 1.68 1.66 1.66 1.66 1.66 1.63 1.61
1.73 1.62 1.66 1.58 1.61 1.64 1.86 1.82 1.67 1.52 1.71 1.78 1.59 1.42 1.31 1.56 1.76 1.83 1.80 1.79 1.76 1.70 1.58 1.63 1.67 1.70 1.72 1.66 1.65 1.64 1.63 1.63 1.64 1.66 1.64 1.64 1.64 1.64 1.61 1.59 1.57 1.56 1.54
1.70 1.62 1.61 1.59 1.56 1.54 1.59 1.82 1.75 1.55 1.53 1.67 1.74 1.49 1.31 1.29 1.46 1.78 1.82 1.85 1.80 1.85 1.84 1.74 1.74 1.75 1.72 1.70 1.73 1.71 1.68 1.67 1.67 1.66 1.66 1.66 1.66 1.65 1.62 1.62 1.62 1.62 1.58
1.64 1.62 1.61 1.63 1.59 1.48 1.63 1.78 1.82 1.66 1.49 1.44 1.64 1.76 1.66 1.60 1.43 1.42 1.68 1.79 1.82 1.71 1.81 1.91 1.83 1.82 1.86 1.86 1.87 1.84 1.82 1.82 1.84 1.84 1.82 1.83 1.82 1.79 1.75 1.70 1.68 1.71 1.72
1.62 1.53 1.61 1.59 1.56 1.57 1.69 1.78 1.80 1.79 1.62 1.57 1.59 1.69 1.66 1.73 1.72 1.54 1.40 1.59 1.74 1.77 1.77 1.85 1.96 1.99 2.00 1.95 1.92 1.90 1.87 1.86 1.88 1.90 1.88 1.88 1.88 1.88 1.89 1.88 1.87 1.85 1.82
1.54 1.53 1.59 1.55 1.55 1.62 1.77 1.78 1.82 1.72 1.55 1.58 1.58 1.63 1.69 1.65 1.69 1.67 1.59 1.63 1.64 1.75 1.85 1.86 1.94 2.00 2.02 2.05 2.04 2.00 1.94 1.91 1.92 1.90 1.89 1.87 1.84 1.86 1.90 1.95 1.97 1.98 1.98
1.44 1.47 1.47 1.40 1.45 1.62 1.82 1.81 1.76 1.66 1.58 1.54 1.55 1.60 1.67 1.77 1.80 1.84 1.69 1.65 1.64 1.76 1.81 1.85 1.91 1.95 2.01 2.01 2.00 2.07 2.07 2.01 1.97 1.95 1.94 1.92 1.91 1.90 1.92 1.95 1.96 1.99 2.09
1.59 1.55 1.48 1.44 1.48 1.62 1.71 1.68 1.72 1.61 1.53 1.56 1.54 1.62 1.70 1.75 1.81 1.73 1.75 1.69 1.55 1.60 1.71 1.81 2.01 1.99 1.97 2.00 2.07 2.09 2.14 2.11 2.06 2.04 2.02 1.99 1.94 1.94 1.92 1.94 1.96 1.95 1.94
1.68 1.58 1.59 1.55 1.53 1.55 1.67 1.75 1.65 1.53 1.53 1.54 1.58 1.65 1.73 1.80 1.74 1.78 1.88 1.81 1.55 1.32 1.43 1.69 1.82 2.07 2.08 2.09 2.14 2.15 2.15 2.17 2.14 2.08 2.06 2.08 2.07 2.04 2.02 1.99 1.99 1.95 1.89
1.64 1.50 1.53 1.57 1.56 1.60 1.67 1.69 1.65 1.68 1.56 1.55 1.63 1.58 1.60 1.75 1.77 1.79 1.75 1.71 1.73 1.58 1.41 1.63 1.73 1.95 2.11 2.12 2.19 2.15 2.22 2.22 2.19 2.15 2.08 2.06 2.07 2.05 2.07 2.06 2.06 2.05 1.99
1.54 1.65 1.58 1.56 1.61 1.66 1.67 1.63 1.67 1.65 1.54 1.56 1.52 1.54 1.62 1.78 1.78 1.83 1.87 1.85 1.73 1.71 1.57 1.64 1.76 1.87 1.90 2.01 2.13 2.17 2.16 2.27 2.28 2.16 2.09 2.03 2.00 2.01 2.02 2.01 2.01 1.99 1.99
1.64 1.68 1.69 1.60 1.72 1.71 1.70 1.69 1.68 1.65 1.53 1.53 1.53 1.56 1.55 1.67 1.66 1.80 1.82 1.79 1.77 1.79 1.63 1.47 1.72 1.77 1.80 1.83 1.94 2.05 2.10 2.19 2.21 2.22 2.14 2.09 2.02 1.97 1.95 1.97 1.97 1.95 1.94
1.63 1.66 1.77 1.68 1.71 1.71 1.70 1.73 1.73 1.70 1.66 1.65 1.64 1.61 1.64 1.70 1.57 1.69 1.80 1.77 1.81 1.83 1.76 1.67 1.66 1.81 1.81 1.85 1.81 1.85 1.89 1.95 2.09 2.13 2.15 2.13 2.08 2.03 2.03 2.05 2.02 2.00 1.99
1.61 1.60 1.69 1.70 1.67 1.63 1.62 1.71 1.76 1.75 1.71 1.69 1.67 1.63 1.65 1.66 1.64 1.69 1.69 1.70 1.73 1.74 1.71 1.68 1.68 1.69 1.76 1.84 1.81 1.67 1.67 1.86 1.78 1.91 1.98 2.00 2.05 2.11 2.13 2.18 2.16 2.15 2.10
1.52 1.53 1.50 1.54 1.58 1.54 1.51 1.58 1.68 1.73 1.68 1.62 1.65 1.62 1.62 1.63 1.64 1.66 1.64 1.66 1.67 1.63 1.65 1.61 1.59 1.63 1.61 1.64 1.65 1.75 1.63 1.67 1.72 1.81 1.78 1.81 1.84 1.83 1.86 1.88 1.92 1.96 1.94
1.45 1.43 1.41 1.41 1.45 1.47 1.48 1.56 1.61 1.63 1.64 1.61 1.54 1.59 1.63 1.62 1.63 1.64 1.62 1.63 1.65 1.61 1.55 1.51 1.50 1.48 1.48 1.53 1.66 1.68 1.67 1.65 1.52 1.86 1.64 1.56 1.70 1.55 1.58 1.62 1.63 1.63 1.65
1.47 1.50 1.53 1.50 1.46 1.50 1.50 1.48 1.53 1.56 1.57 1.61 1.63 1.60 1.62 1.66 1.65 1.67 1.69 1.70 1.67 1.66 1.66 1.63 1.55 1.51 1.50 1.63 1.69 1.62 1.63 1.65 1.68 1.88 1.85 1.58 1.77 1.70 1.80 1.83 1.82 1.80 1.80
1.63 1.63 1.65 1.66 1.65 1.72 1.69 1.66 1.66 1.63 1.62 1.64 1.68 1.73 1.73 1.72 1.74 1.72 1.72 1.73 1.77 1.83 1.92 1.94 1.89 1.84 1.78 1.74 1.71 1.69 1.66 1.66 1.69 1.72 1.79 1.44 1.66 1.58 1.74 1.81 1.84 1.85 1.85
1.79 1.81 1.83 1.79 1.78 1.81 1.79 1.76 1.80 1.79 1.70 1.56 1.61 1.70 1.77 1.85 1.84 1.83 1.75 1.72 1.76 1.85 2.05 2.05 2.01 2.06 2.03 2.01 1.97 1.89 1.72 1.62 1.46 1.46 1.69 1.53 1.53 1.56 1.70 1.73 1.84 1.79 1.75
1.68 1.68 1.70 1.75 1.78 1.77 1.81 1.72 1.59 1.62 1.67 1.71 1.72 1.77 1.78 1.84 1.89 1.90 1.85 1.80 1.70 1.76 1.87 1.92 1.94 1.95 2.04 2.09 2.11 2.10 1.94 1.64 1.60 1.54 1.77 1.69 1.70 1.67 1.42 1.55 1.51 1.40 1.41

GFSMA_prec_pwat_198.txt.gz
Precipitable_Water
1.97 1.66 1.38 1.51 1.64 1.95 2.00 1.98 2.04 2.00 1.95 1.93 1.90 1.88 1.81 1.79 1.69 1.63 1.58 1.61 1.79 1.80 1.87 1.85 1.87 1.90 1.94 1.99 1.97 1.95 1.87 1.86 1.84 1.81 1.81 1.85 1.81 1.75 1.63 1.58 1.63 1.71 1.73
1.84 1.45 1.44 1.54 1.73 2.00 2.03 2.03 1.99 1.95 1.86 1.82 1.80 1.86 1.81 1.80 1.66 1.57 1.60 1.48 1.68 1.79 1.79 1.80 1.82 1.83 1.82 1.87 1.88 1.87 1.88 1.86 1.86 1.73 1.69 1.68 1.68 1.76 1.82 1.81 1.77 1.77 1.75
1.79 1.55 1.49 1.67 1.84 1.98 1.99 2.06 1.93 1.94 1.81 1.88 1.80 1.84 1.85 1.84 1.66 1.48 1.56 1.53 1.51 1.66 1.80 1.81 1.90 1.81 1.84 1.86 1.86 1.86 1.86 1.87 1.86 1.81 1.76 1.81 1.81 1.81 1.80 1.79 1.79 1.79 1.75
1.80 1.52 1.62 1.73 1.89 1.95 1.99 1.88 1.87 1.79 1.84 1.89 1.92 1.86 1.86 1.81 1.74 1.54 1.52 1.54 1.49 1.54 1.62 1.75 1.83 1.84 1.80 1.83 1.83 1.83 1.83 1.84 1.84 1.81 1.80 1.74 1.69 1.70 1.68 1.68 1.70 1.64 1.61
1.72 1.57 1.63 1.77 1.84 1.91 1.92 1.77 1.73 1.80 1.81 1.80 1.79 1.86 1.87 1.78 1.74 1.67 1.50 1.46 1.46 1.50 1.58 1.61 1.68 1.70 1.68 1.76 1.77 1.77 1.80 1.78 1.74 1.68 1.61 1.61 1.64 1.70 1.67 1.63 1.62 1.64 1.60
1.65 1.62 1.66 1.74 1.74 1.81 1.85 1.79 1.72 1.80 1.84 1.72 1.75 1.80 1.86 1.78 1.77 1.72 1.66 1.57 1.51 1.52 1.58 1.55 1.54 1.58 1.63 1.73 1.76 1.67 1.66 1.64 1.62 1.64 1.67 1.66 1.64 1.66 1.69 1.70 1.70 1.70 1.69
1.64 1.64 1.71 1.74 1.71 1.79 1.85 1.86 1.74 1.72 1.81 1.78 1.61 1.66 1.72 1.82 1.78 1.76 1.77 1.72 1.58 1.60 1.66 1.63 1.66 1.70 1.53 1.60 1.71 1.74 1.72 1.69 1.69 1.68 1.64 1.64 1.66 1.67 1.67 1.66 1.66 1.67 1.64
1.71 1.68 1.78 1.70 1.76 1.76 1.85 1.86 1.70 1.60 1.75 1.79 1.63 1.49 1.44 1.63 1.77 1.84 1.84 1.81 1.78 1.64 1.60 1.65 1.70 1.73 1.74 1.68 1.66 1.69 1.70 1.71 1.71 1.69 1.68 1.66 1.65 1.65 1.63 1.63 1.60 1.58 1.55
1.67 1.72 1.79 1.80 1.76 1.76 1.78 1.86 1.81 1.61 1.58 1.75 1.81 1.58 1.37 1.38 1.52 1.77 1.82 1.85 1.84 1.86 1.77 1.71 1.72 1.73 1.74 1.78 1.80 1.77 1.72 1.69 1.69 1.68 1.66 1.64 1.64 1.65 1.64 1.61 1.61 1.61 1.60
1.76 1.69 1.75 1.77 1.72 1.65 1.60 1.86 1.88 1.71 1.55 1.51 1.70 1.74 1.69 1.62 1.57 1.52 1.71 1.81 1.85 1.81 1.87 1.93 1.85 1.84 1.87 1.86 1.88 1.86 1.86 1.77 1.78 1.80 1.80 1.80 1.81 1.80 1.76 1.71 1.67 1.66 1.68
1.72 1.63 1.71 1.72 1.70 1.61 1.65 1.81 1.81 1.76 1.69 1.59 1.64 1.69 1.65 1.76 1.74 1.61 1.55 1.56 1.75 1.82 1.86 1.94 1.98 2.00 1.95 1.95 1.97 1.97 1.89 1.87 1.85 1.89 1.87 1.86 1.87 1.88 1.87 1.88 1.87 1.84 1.80
1.67 1.55 1.58 1.58 1.64 1.65 1.71 1.77 1.90 1.88 1.73 1.65 1.61 1.54 1.69 1.70 1.80 1.73 1.66 1.71 1.78 1.80 1.86 1.90 2.00 2.06 2.09 2.10 2.09 2.04 1.97 1.90 1.86 1.88 1.88 1.87 1.86 1.84 1.85 1.89 1.92 1.92 1.93
1.65 1.48 1.49 1.56 1.51 1.56 1.67 1.88 1.87 1.84 1.73 1.71 1.61 1.57 1.63 1.78 1.85 1.85 1.79 1.73 1.76 1.82 1.84 1.89 1.89 2.07 2.07 2.09 2.10 2.05 2.03 1.98 1.93 1.90 1.91 1.92 1.92 1.89 1.87 1.88 1.93 1.95 1.98
1.67 1.55 1.51 1.52 1.47 1.52 1.64 1.88 1.76 1.78 1.72 1.65 1.65 1.65 1.69 1.73 1.84 1.79 1.72 1.76 1.60 1.70 1.73 1.85 2.06 2.04 2.01 2.11 2.07 2.03 2.06 2.09 2.06 2.02 2.01 1.97 1.97 1.92 1.93 1.91 1.94 1.98 1.99
1.78 1.66 1.55 1.45 1.48 1.53 1.66 1.73 1.70 1.71 1.61 1.59 1.63 1.68 1.73 1.82 1.83 1.83 1.80 1.93 1.68 1.44 1.57 1.89 1.92 2.07 2.16 2.07 2.06 2.10 2.09 2.14 2.12 2.08 2.05 2.03 2.06 2.06 2.02 2.00 1.99 1.99 2.00
1.87 1.82 1.67 1.57 1.57 1.57 1.62 1.74 1.76 1.74 1.65 1.60 1.59 1.63 1.63 1.72 1.81 1.83 1.90 1.85 1.76 1.62 1.45 1.71 1.81 1.94 2.06 2.08 2.15 2.10 2.13 2.12 2.15 2.14 2.08 2.06 2.01 2.01 2.04 2.03 2.05 2.05 2.06
1.83 1.73 1.59 1.56 1.57 1.54 1.60 1.66 1.72 1.76 1.71 1.67 1.60 1.56 1.57 1.66 1.71 1.81 1.88 1.87 1.81 1.71 1.53 1.69 1.85 1.89 1.88 1.91 2.06 2.14 2.19 2.15 2.17 2.22 2.12 2.07 2.02 1.97 1.95 1.95 1.97 1.97 1.97
1.73 1.71 1.61 1.64 1.64 1.59 1.64 1.61 1.66 1.67 1.67 1.58 1.60 1.60 1.55 1.65 1.72 1.75 1.81 1.79 1.78 1.80 1.66 1.57 1.70 1.76 1.87 2.01 1.95 1.95 2.01 2.14 2.13 2.24 2.18 2.14 2.10 2.04 1.95 1.92 1.92 1.92 1.92
1.68 1.67 1.74 1.74 1.68 1.65 1.75 1.71 1.71 1.72 1.75 1.64 1.66 1.64 1.63 1.62 1.65 1.66 1.70 1.77 1.87 1.86 1.83 1.68 1.62 1.87 1.91 1.95 1.94 1.99 1.96 1.96 1.99 2.01 1.98 2.02 2.06 2.05 2.05 2.03 2.01 2.02 2.01
1.68 1.70 1.72 1.76 1.83 1.77 1.75 1.76 1.73 1.76 1.80 1.77 1.74 1.74 1.71 1.68 1.67 1.72 1.70 1.76 1.78 1.73 1.76 1.74 1.67 1.70 1.80 1.89 1.88 1.76 1.75 1.92 1.85 1.94 1.98 1.93 1.91 1.90 1.89 1.94 1.95 1.98 2.02
1.63 1.67 1.72 1.74 1.83 1.79 1.70 1.67 1.62 1.65 1.75 1.74 1.75 1.75 1.72 1.67 1.66 1.63 1.66 1.69 1.69 1.66 1.61 1.61 1.60 1.62 1.64 1.67 1.65 1.68 1.66 1.73 1.80 1.88 1.80 1.83 1.88 1.91 1.89 1.79 1.71 1.64 1.62
1.58 1.58 1.63 1.61 1.62 1.62 1.62 1.57 1.54 1.63 1.67 1.69 1.68 1.68 1.67 1.64 1.61 1.58 1.56 1.54 1.62 1.60 1.56 1.54 1.50 1.49 1.58 1.64 1.69 1.64 1.62 1.59 1.53 1.96 1.89 1.82 1.89 1.82 1.87 1.87 1.90 1.88 1.84
1.55 1.50 1.49 1.49 1.46 1.50 1.52 1.51 1.48 1.51 1.63 1.66 1.66 1.65 1.65 1.65 1.64 1.66 1.66 1.62 1.62 1.63 1.62 1.58 1.55 1.58 1.68 1.82 1.75 1.63 1.64 1.67 1.67 1.82 1.86 1.71 1.87 1.75 1.87 1.89 1.88 1.84 1.81
1.38 1.43 1.44 1.49 1.49 1.53 1.58 1.59 1.57 1.59 1.63 1.66 1.70 1.66 1.68 1.71 1.78 1.77 1.76 1.69 1.74 1.76 1.80 1.81 1.80 1.89 2.00 2.06 2.02 1.92 1.81 1.76 1.79 1.82 1.86 1.53 1.68 1.56 1.70 1.78 1.86 1.86 1.88
1.50 1.48 1.55 1.61 1.63 1.68 1.71 1.67 1.73 1.70 1.70 1.79 1.91 1.85 1.80 1.77 1.81 1.77 1.76 1.71 1.73 1.78 1.97 1.99 1.98 2.02 2.08 2.04 2.02 1.99 1.88 1.86 1.77 1.81 1.94 1.75 1.73 1.74 1.82 1.83 1.84 1.89 1.77
1.75 1.77 1.77 1.84 1.89 1.84 1.83 1.78 1.85 1.77 1.71 1.80 1.89 1.88 1.94 1.86 1.85 1.75 1.75 1.76 1.67 1.76 1.88 1.93 2.00 1.95 1.95 1.96 1.96 1.97 1.93 1.76 1.75 1.63 1.86 1.73 1.71 1.66 1.43 1.53 1.64 1.68 1.57

GFSMA_prec_pwat_201.txt.gz
Precipitable_Water
2.10 2.04 1.59 1.57 1.78 1.92 2.03 1.91 2.07 1.97 1.94 1.91 1.90 1.86 1.91 1.72 1.66 1.92 1.60 1.63 1.71 1.84 1.93 1.96 1.96 1.96 1.90 1.83 1.79 1.76 1.73 1.75 1.75 1.80 1.78 1.65 1.64 1.74 1.72 1.68 1.59 1.57 1.68
2.03 1.84 1.43 1.57 1.65 1.99 2.11 2.10 2.11 2.00 1.93 1.82 1.81 1.91 1.86 1.82 1.61 1.71 1.68 1.55 1.72 1.70 1.80 1.80 1.84 1.86 1.90 1.92 1.91 1.87 1.80 1.82 1.84 1.89 1.85 1.83 1.82 1.74 1.68 1.69 1.74 1.73 1.73
1.98 1.66 1.52 1.75 1.78 2.17 1.93 1.98 1.90 2.04 1.89 1.94 1.74 1.82 1.86 1.83 1.57 1.57 1.66 1.48 1.65 1.77 1.74 1.76 1.74 1.75 1.77 1.83 1.90 1.91 1.91 1.89 1.86 1.87 1.81 1.74 1.71 1.73 1.76 1.77 1.74 1.72 1.72
1.85 1.57 1.71 1.64 1.97 2.01 2.04 1.83 2.03 1.90 1.93 1.97 1.91 1.86 1.91 1.80 1.62 1.57 1.66 1.61 1.60 1.71 1.76 1.75 1.79 1.80 1.79 1.82 1.85 1.89 1.90 1.87 1.86 1.89 1.84 1.77 1.80 1.76 1.71 1.69 1.65 1.64 1.64
1.81 1.63 1.72 2.02 1.89 2.01 2.31 1.91 1.77 1.83 1.86 1.90 1.78 1.82 1.91 1.79 1.71 1.63 1.51 1.58 1.61 1.64 1.59 1.67 1.75 1.72 1.67 1.76 1.80 1.83 1.88 1.83 1.84 1.82 1.78 1.77 1.68 1.62 1.63 1.63 1.61 1.58 1.60
1.82 1.62 1.65 1.97 1.82 1.96 1.87 1.80 1.77 1.89 1.88 1.72 1.87 1.88 2.00 1.83 1.86 1.67 1.56 1.56 1.45 1.62 1.70 1.64 1.60 1.63 1.65 1.68 1.72 1.74 1.78 1.78 1.77 1.74 1.70 1.61 1.59 1.68 1.68 1.67 1.68 1.68 1.68
1.74 1.61 1.75 1.64 1.70 1.84 2.06 1.79 1.87 1.77 2.07 1.73 1.69 1.68 1.76 1.80 1.76 1.81 1.72 1.65 1.58 1.58 1.76 1.66 1.55 1.59 1.54 1.69 1.76 1.73 1.69 1.71 1.69 1.64 1.62 1.65 1.66 1.66 1.67 1.67 1.65 1.64 1.65
1.72 1.67 1.91 1.82 1.66 1.80 1.84 1.90 1.76 1.80 1.78 1.81 1.67 1.87 1.60 1.67 1.90 1.91 1.84 1.83 1.70 1.66 1.70 1.69 1.73 1.81 1.72 1.62 1.61 1.63 1.65 1.69 1.68 1.68 1.67 1.64 1.63 1.64 1.65 1.64 1.61 1.58 1.55
1.73 1.73 1.72 1.82 1.80 1.82 1.81 1.85 1.80 1.82 1.84 1.75 1.81 1.75 1.45 1.64 1.65 1.77 1.80 1.84 1.83 1.78 1.70 1.71 1.71 1.71 1.77 1.80 1.74 1.69 1.64 1.67 1.69 1.71 1.68 1.67 1.66 1.64 1.62 1.62 1.61 1.60 1.60
1.67 1.71 1.85 1.83 1.71 1.74 1.87 1.81 1.92 1.91 1.61 1.68 1.76 1.75 1.74 1.74 1.48 1.59 1.78 1.84 1.80 1.87 1.86 1.82 1.79 1.82 1.81 1.80 1.88 1.87 1.81 1.71 1.74 1.76 1.77 1.80 1.81 1.80 1.78 1.75 1.72 1.71 1.71
1.75 1.72 1.73 1.80 1.73 1.69 1.69 1.78 2.03 1.75 1.77 1.57 1.70 1.68 1.66 1.80 1.77 1.74 1.59 1.59 1.73 1.85 1.82 1.87 1.99 1.92 1.92 1.95 1.91 1.93 1.91 1.89 1.83 1.80 1.82 1.83 1.85 1.87 1.86 1.86 1.85 1.85 1.82
1.74 1.72 1.69 1.73 1.74 1.67 1.73 1.73 1.86 1.89 1.79 1.64 1.78 1.62 1.75 1.68 1.72 1.67 1.65 1.73 1.77 1.78 1.85 1.93 2.01 2.04 2.02 2.00 2.02 2.06 1.99 1.91 1.87 1.85 1.86 1.86 1.89 1.88 1.88 1.86 1.87 1.87 1.86
1.80 1.81 1.58 1.59 1.59 1.65 1.75 1.81 1.86 1.96 1.80 1.65 1.58 1.78 1.62 1.73 1.90 2.02 1.72 1.67 1.55 2.09 1.83 1.93 1.98 2.09 2.12 2.13 2.18 2.08 2.03 1.98 1.94 1.88 1.87 1.88 1.89 1.92 1.91 1.86 1.86 1.90 1.93
1.80 1.81 1.54 1.51 1.58 1.62 1.60 1.71 1.91 1.84 1.79 1.70 1.63 1.55 1.82 1.77 1.81 1.79 1.76 1.84 1.58 1.76 1.99 1.52 1.92 2.00 2.04 2.13 2.20 2.13 2.09 2.06 2.02 1.99 1.97 1.98 1.94 1.96 1.94 1.92 1.89 1.89 1.94
1.99 1.87 1.67 1.47 1.52 1.51 1.53 1.68 1.76 1.81 1.96 1.72 1.61 1.62 1.57 1.77 1.86 1.81 1.77 1.79 1.72 1.66 1.63 2.11 1.89 2.13 2.17 2.06 2.08 2.09 2.04 2.09 2.07 2.06 2.04 2.02 2.00 2.00 2.05 2.02 1.99 1.97 1.97
1.93 2.21 1.58 1.54 1.48 1.51 1.54 1.62 1.71 1.79 1.76 1.70 1.64 1.62 1.65 1.72 1.89 1.80 1.73 1.98 1.84 1.59 1.52 1.77 1.92 2.07 2.11 2.12 2.17 2.08 2.11 2.14 2.11 2.12 2.10 2.06 2.00 1.94 1.96 1.99 1.99 1.99 2.01
1.98 1.97 1.89 1.74 1.62 1.57 1.56 1.57 1.70 1.92 1.85 1.73 1.72 1.78 1.67 1.71 1.67 1.79 1.82 1.85 1.79 1.88 1.55 1.69 1.97 1.95 1.88 1.86 2.09 2.05 2.12 2.11 2.18 2.07 2.07 2.08 1.99 1.98 1.96 1.93 1.90 1.89 1.91
1.94 1.92 1.88 1.81 1.70 1.64 1.66 1.58 1.66 1.66 1.76 1.70 1.71 1.58 1.63 1.63 1.68 1.78 1.79 1.83 1.89 1.82 1.76 1.62 1.70 1.87 1.87 2.06 2.00 2.00 1.99 1.94 2.10 2.22 2.18 2.12 2.05 2.07 2.08 2.06 1.99 1.92 1.90
1.90 1.87 1.82 1.75 1.63 1.71 1.67 1.72 1.75 1.74 1.79 1.77 1.72 1.68 1.69 1.66 1.63 1.69 1.77 1.71 1.77 1.83 1.83 1.73 1.69 1.88 1.93 2.14 2.07 2.06 2.05 2.05 1.93 1.97 1.93 1.99 1.91 1.91 1.95 1.97 1.99 2.00 2.01
1.87 1.70 1.66 1.69 1.73 1.78 1.75 1.75 1.80 1.78 1.78 1.82 1.83 1.84 1.79 1.73 1.67 1.72 1.74 1.69 1.70 1.78 1.83 1.68 1.72 1.73 1.76 1.92 1.92 1.74 1.78 1.99 1.96 2.14 2.09 2.11 2.02 1.94 1.85 1.80 1.79 1.82 1.86
1.82 1.80 1.69 1.68 1.77 1.80 1.86 1.81 1.82 1.84 1.81 1.77 1.91 1.93 1.87 1.83 1.82 1.74 1.73 1.76 1.72 1.70 1.65 1.60 1.60 1.69 1.64 1.64 1.70 1.85 1.74 1.69 1.79 1.84 1.85 1.87 1.92 2.03 2.03 1.99 1.91 1.85 1.82
1.69 1.71 1.71 1.69 1.69 1.71 1.75 1.80 1.73 1.75 1.70 1.70 1.77 1.80 1.84 1.86 1.81 1.73 1.67 1.59 1.70 1.67 1.63 1.57 1.59 1.53 1.67 1.73 1.70 1.63 1.64 1.68 1.55 2.06 1.84 1.79 1.95 1.88 1.94 2.01 2.01 2.04 1.96
1.56 1.60 1.65 1.64 1.63 1.70 1.67 1.66 1.58 1.54 1.52 1.57 1.68 1.71 1.77 1.76 1.79 1.79 1.72 1.62 1.55 1.52 1.53 1.53 1.45 1.44 1.54 1.67 1.80 1.80 1.80 1.69 1.60 1.70 1.79 1.62 1.81 1.72 1.90 1.78 1.89 1.87 1.89
1.52 1.54 1.58 1.62 1.57 1.61 1.56 1.51 1.53 1.51 1.49 1.47 1.59 1.78 1.78 1.66 1.75 1.90 1.79 1.78 1.82 1.81 1.73 1.69 1.65 1.69 1.78 1.88 1.96 2.02 1.97 1.96 2.00 1.99 2.04 1.75 1.94 1.84 1.91 2.02 1.91 1.91 1.93
1.68 1.58 1.54 1.57 1.51 1.47 1.51 1.51 1.54 1.58 1.58 1.58 1.63 1.72 1.71 1.66 1.69 1.78 1.85 1.77 1.78 1.86 1.98 1.96 1.93 1.94 1.94 1.95 1.97 1.92 1.77 1.73 1.67 1.78 2.07 1.96 1.93 1.79 1.81 1.84 1.91 1.91 1.85
1.80 1.73 1.61 1.54 1.57 1.54 1.61 1.63 1.69 1.67 1.61 1.68 1.78 1.82 1.87 1.94 1.99 1.86 1.83 1.85 1.62 1.74 1.86 1.92 1.95 1.98 1.96 1.96 1.96 1.90 1.79 1.68 1.72 1.65 1.86 1.69 1.64 1.64 1.36 1.46 1.54 1.62 1.38

GFSMA_prec_pwat_204.txt.gz
Precipitable_Water
2.02 1.99 2.01 1.76 1.81 1.84 2.23 2.19 2.01 1.97 1.95 1.84 1.87 1.73 1.67 1.76 1.91 1.80 1.73 1.64 1.84 1.88 1.89 1.93 1.89 1.74 1.51 1.44 1.41 1.41 1.48 1.52 1.57 1.53 1.61 1.64 1.66 1.64 1.72 1.71 1.68 1.62 1.58
2.10 1.89 1.71 1.57 1.77 1.81 2.18 2.17 1.94 1.96 1.85 1.93 1.81 1.74 1.69 1.54 1.79 1.67 1.71 1.58 1.66 1.82 1.87 1.88 1.88 1.82 1.72 1.58 1.54 1.56 1.59 1.61 1.64 1.70 1.79 1.83 1.71 1.63 1.74 1.67 1.68 1.67 1.69
2.09 1.89 1.49 1.59 1.87 1.94 2.03 1.97 2.03 1.98 2.01 1.95 1.84 1.78 1.69 1.61 1.60 1.68 1.55 1.43 1.56 1.64 1.70 1.73 1.82 1.86 1.78 1.74 1.73 1.71 1.70 1.68 1.68 1.71 1.81 1.83 1.79 1.78 1.73 1.70 1.74 1.74 1.71
2.04 1.77 1.60 1.72 1.89 1.98 2.10 1.99 1.88 1.89 2.14 1.79 1.76 1.76 1.80 1.70 1.46 1.65 1.67 1.44 1.52 1.59 1.65 1.63 1.62 1.66 1.70 1.77 1.84 1.86 1.84 1.80 1.77 1.79 1.83 1.83 1.74 1.71 1.74 1.77 1.72 1.67 1.60
1.90 1.59 1.58 1.69 1.90 1.93 1.76 2.12 1.98 2.02 1.95 2.06 1.87 1.98 1.74 1.77 1.48 1.60 1.62 1.57 1.54 1.58 1.57 1.65 1.67 1.69 1.67 1.72 1.80 1.85 1.84 1.84 1.84 1.84 1.84 1.83 1.71 1.73 1.72 1.66 1.61 1.62 1.61
1.70 1.61 1.67 2.17 1.87 1.90 1.92 1.94 1.68 1.95 2.12 1.83 2.07 2.08 1.96 1.91 1.71 1.57 1.45 1.58 1.58 1.63 1.62 1.56 1.61 1.63 1.60 1.63 1.72 1.79 1.81 1.83 1.79 1.79 1.79 1.73 1.72 1.68 1.60 1.64 1.69 1.69 1.68
1.81 1.59 1.78 1.97 1.72 1.95 1.71 1.58 1.72 1.98 1.72 1.82 1.94 1.78 1.81 1.80 1.78 1.67 1.55 1.55 1.45 1.63 1.67 1.67 1.43 1.53 1.55 1.56 1.58 1.66 1.69 1.73 1.71 1.71 1.74 1.75 1.69 1.63 1.66 1.67 1.67 1.68 1.67
1.86 1.55 1.69 1.74 1.56 1.81 1.92 1.81 1.68 1.91 1.96 1.78 1.62 1.67 1.65 1.62 1.78 1.91 1.85 1.70 1.60 1.55 1.72 1.72 1.64 1.63 1.67 1.53 1.55 1.61 1.59 1.65 1.69 1.69 1.68 1.62 1.59 1.62 1.63 1.63 1.62 1.61 1.60
2.01 1.51 1.74 1.55 1.64 1.76 1.88 1.70 1.71 1.75 1.76 1.79 1.81 1.73 1.65 1.56 1.69 1.90 1.77 1.76 1.71 1.66 1.72 1.70 1.72 1.73 1.72 1.71 1.60 1.50 1.51 1.53 1.57 1.58 1.58 1.62 1.64 1.62 1.61 1.62 1.62 1.62 1.62
1.75 1.54 1.60 1.69 1.65 1.81 1.86 1.97 1.87 1.85 1.78 1.89 1.82 1.84 1.72 1.62 1.61 1.48 1.82 1.81 1.76 1.79 1.78 1.76 1.74 1.85 1.86 1.82 1.82 1.81 1.69 1.60 1.61 1.65 1.71 1.69 1.70 1.69 1.68 1.69 1.71 1.73 1.73
1.80 1.68 1.62 1.70 1.67 1.60 1.84 1.72 1.90 1.81 1.70 1.71 1.77 1.76 1.72 1.82 1.77 1.84 1.73 1.62 1.84 1.74 2.21 1.85 1.91 1.86 1.87 1.85 1.89 1.89 1.88 1.81 1.75 1.73 1.75 1.76 1.79 1.81 1.81 1.83 1.86 1.87 1.86
1.63 1.57 1.61 1.58 1.68 1.57 1.57 1.60 1.65 1.76 1.76 1.69 1.68 1.74 1.71 1.84 1.78 1.67 1.48 1.69 1.88 1.73 2.15 2.01 2.04 1.99 1.97 1.96 1.93 1.99 1.96 1.94 1.87 1.84 1.80 1.79 1.81 1.83 1.85 1.88 1.91 1.90 1.87
1.57 1.55 1.60 1.51 1.57 1.59 1.58 1.55 1.64 1.67 1.73 1.55 1.51 1.55 1.87 1.71 1.86 1.75 1.63 1.72 1.51 1.55 1.84 2.21 2.06 2.31 2.10 2.06 2.08 2.06 2.02 1.98 1.95 1.88 1.84 1.82 1.82 1.85 1.88 1.88 1.89 1.88 1.89
1.98 1.91 1.80 1.57 1.53 1.51 1.53 1.64 1.71 1.69 1.73 1.67 1.52 1.54 1.61 1.80 1.97 1.86 1.76 1.70 1.49 1.63 1.95 1.77 1.93 2.10 2.18 2.19 2.18 2.20 2.10 2.02 1.98 1.95 1.92 1.92 1.91 1.88 1.90 1.92 1.93 1.90 1.90
2.01 2.19 1.85 1.69 1.39 1.45 1.59 1.45 1.53 1.72 1.71 1.82 1.70 1.53 1.45 1.65 1.81 1.92 1.93 1.76 1.68 1.59 1.89 1.73 1.85 1.99 2.09 2.19 2.15 2.14 2.08 2.02 1.98 1.98 1.98 1.96 1.93 1.93 1.93 1.98 2.02 2.00 1.99
2.02 2.11 2.09 1.86 1.54 1.52 1.39 1.50 1.52 1.67 1.67 1.65 1.54 1.60 1.57 1.61 1.81 1.86 1.67 1.72 1.89 1.69 1.60 1.95 2.07 2.05 2.17 2.21 2.28 2.16 2.06 2.01 2.09 2.06 2.02 2.01 2.02 1.97 1.90 1.91 1.96 2.00 1.98
1.89 2.00 2.17 1.82 1.58 1.42 1.44 1.39 1.44 1.63 1.80 1.69 1.62 1.67 1.65 1.65 1.61 1.76 1.95 1.73 1.77 1.83 1.57 1.82 2.17 2.05 2.11 1.92 1.89 2.07 2.05 2.00 2.02 2.14 2.09 2.02 2.07 2.00 1.95 1.96 1.95 1.94 1.92
1.87 1.92 1.79 1.45 1.81 1.64 1.66 1.59 1.46 1.59 1.73 1.78 1.72 1.65 1.70 1.62 1.48 1.61 1.75 1.82 1.83 1.88 1.85 1.69 1.97 1.89 1.93 2.01 2.02 1.97 1.92 1.94 2.00 2.06 2.16 2.12 2.05 2.02 1.98 1.98 2.03 2.05 2.00
1.81 1.98 1.93 1.86 1.74 1.77 1.72 1.69 1.60 1.60 1.65 1.69 1.75 1.71 1.59 1.55 1.56 1.66 1.70 1.62 1.77 1.74 1.76 1.73 1.63 1.84 1.92 1.95 2.09 2.06 2.03 2.03 1.95 1.94 1.96 1.98 1.98 1.94 1.89 1.82 1.80 1.80 1.85
1.86 1.87 1.90 1.92 1.73 1.63 1.62 1.67 1.62 1.71 1.64 1.72 1.83 1.83 1.74 1.71 1.69 1.66 1.67 1.69 1.79 1.72 1.79 1.89 1.76 1.73 1.83 1.93 1.89 1.82 1.79 1.84 1.92 2.18 2.08 2.16 2.00 1.94 1.94 1.95 1.94 1.90 1.82
1.73 1.86 1.87 1.89 1.77 1.64 1.60 1.64 1.67 1.69 1.72 1.69 1.71 1.82 1.83 1.78 1.82 1.77 1.74 1.68 1.75 1.72 1.67 1.66 1.60 1.61 1.69 1.73 1.71 1.72 1.61 1.81 1.79 1.90 1.90 1.85 2.02 2.02 2.00 2.01 1.99 2.02 2.02
1.61 1.79 1.80 1.75 1.64 1.66 1.66 1.63 1.75 1.68 1.79 1.66 1.73 1.71 1.86 2.01 1.95 1.84 1.77 1.67 1.62 1.66 1.70 1.69 1.71 1.70 1.74 1.79 1.89 1.89 1.73 1.64 1.50 1.94 1.82 1.91 1.99 1.85 1.94 1.95 1.94 1.93 1.92
1.68 1.54 1.67 1.77 1.65 1.69 1.57 1.65 1.69 1.71 1.66 1.65 1.64 1.62 1.67 1.75 1.78 1.86 1.74 1.75 1.70 1.53 1.47 1.44 1.39 1.33 1.47 1.67 1.74 1.72 1.67 1.69 1.71 1.91 1.91 1.74 1.87 1.76 1.93 1.99 2.00 2.00 2.03
1.75 1.64 1.56 1.61 1.71 1.68 1.65 1.62 1.68 1.67 1.60 1.51 1.52 1.52 1.55 1.63 1.69 1.82 1.80 1.76 1.79 1.72 1.67 1.60 1.50 1.48 1.54 1.62 1.69 1.74 1.76 1.82 1.95 1.98 2.01 1.63 1.88 1.90 2.13 2.18 2.17 2.04 2.01
1.79 1.71 1.68 1.61 1.57 1.66 1.69 1.59 1.64 1.57 1.45 1.44 1.49 1.51 1.51 1.59 1.70 1.73 1.66 1.59 1.69 1.80 1.90 1.96 2.00 1.96 1.92 1.94 1.94 1.92 1.77 1.72 1.60 1.70 1.88 1.76 1.81 1.86 1.95 1.94 1.88 1.79 1.72
1.98 1.89 1.70 1.72 1.65 1.55 1.65 1.63 1.54 1.51 1.42 1.42 1.52 1.59 1.62 1.61 1.73 1.79 1.71 1.62 1.57 1.71 1.77 1.75 1.90 1.97 2.03 2.02 2.04 1.97 1.84 1.64 1.64 1.59 1.90 1.80 1.78 1.74 1.47 1.65 1.60 1.58 1.50

GFSMA_prec_pwat_207.txt.gz
Precipitable_Water
2.05 1.99 1.78 1.58 1.82 1.97 1.94 1.83 1.94 1.88 1.87 2.03 1.84 1.92 1.87 1.92 1.86 1.88 1.95 1.94 1.90 1.97 1.93 1.90 1.84 1.62 1.45 1.39 1.42 1.34 1.38 1.45 1.42 1.50 1.56 1.65 1.70 1.62 1.64 1.68 1.68 1.65 1.62
2.05 1.95 1.91 1.77 2.06 1.87 1.85 1.85 1.97 1.99 1.94 2.09 1.82 1.83 1.82 1.78 1.68 1.83 1.82 1.82 1.92 1.93 1.94 1.87 1.79 1.59 1.46 1.45 1.43 1.40 1.40 1.46 1.49 1.47 1.45 1.55 1.63 1.60 1.58 1.65 1.65 1.65 1.61
2.10 1.97 1.92 1.61 1.89 1.87 2.00 1.82 1.94 1.96 1.99 1.81 1.82 1.80 1.74 1.73 1.58 1.69 1.68 1.64 1.86 1.87 1.91 1.89 1.81 1.69 1.53 1.48 1.51 1.47 1.44 1.49 1.54 1.54 1.59 1.66 1.75 1.71 1.59 1.69 1.66 1.67 1.71
2.13 2.01 1.72 1.58 1.88 2.04 2.04 2.06 1.92 1.98 2.15 1.90 1.77 1.78 1.75 1.74 1.61 1.59 1.65 1.55 1.59 1.71 1.79 1.82 1.83 1.78 1.70 1.60 1.56 1.55 1.53 1.59 1.61 1.62 1.63 1.72 1.80 1.74 1.69 1.67 1.66 1.67 1.64
2.11 1.96 1.52 1.69 1.92 1.92 1.96 1.94 1.95 2.08 1.84 1.80 1.85 1.85 1.80 1.72 1.56 1.61 1.61 1.56 1.55 1.57 1.64 1.64 1.67 1.71 1.73 1.72 1.71 1.70 1.73 1.74 1.72 1.67 1.71 1.75 1.78 1.76 1.64 1.66 1.67 1.63 1.60
2.10 1.77 1.57 1.68 1.90 1.97 1.96 1.92 1.98 2.00 1.87 1.66 1.70 1.68 1.94 1.80 1.60 1.58 1.57 1.61 1.57 1.62 1.55 1.58 1.59 1.57 1.60 1.63 1.70 1.76 1.77 1.79 1.78 1.76 1.77 1.76 1.77 1.73 1.66 1.68 1.63 1.65 1.70
2.00 1.63 1.59 1.89 1.94 1.97 1.84 1.86 1.84 1.89 1.97 1.96 2.01 1.73 1.76 1.78 1.69 1.63 1.58 1.56 1.58 1.56 1.59 1.55 1.51 1.54 1.56 1.53 1.58 1.62 1.72 1.75 1.74 1.74 1.73 1.71 1.70 1.69 1.71 1.64 1.62 1.66 1.68
1.77 1.67 1.71 1.75 1.80 1.83 1.92 1.76 1.72 1.81 1.91 1.89 1.62 1.76 1.59 1.66 1.74 1.75 1.67 1.57 1.59 1.62 1.57 1.65 1.53 1.39 1.49 1.49 1.48 1.56 1.61 1.67 1.73 1.71 1.68 1.67 1.67 1.66 1.59 1.55 1.60 1.61 1.60
1.75 1.64 1.60 1.74 1.67 1.65 1.87 1.80 1.71 1.69 1.85 1.84 1.78 1.75 1.47 1.42 1.74 1.86 1.71 1.73 1.61 1.63 1.63 1.71 1.69 1.65 1.61 1.66 1.63 1.52 1.57 1.54 1.62 1.65 1.64 1.62 1.58 1.51 1.52 1.59 1.59 1.59 1.59
1.92 1.73 1.52 1.79 1.67 1.63 1.86 1.83 1.84 1.78 1.72 1.54 1.88 1.90 1.86 1.70 1.56 1.47 1.72 1.71 1.79 1.72 1.71 1.75 1.79 1.73 1.72 1.73 1.71 1.64 1.62 1.51 1.47 1.48 1.50 1.51 1.54 1.58 1.60 1.58 1.61 1.65 1.69
2.02 1.66 1.47 1.56 1.66 1.72 1.72 1.86 1.87 1.87 1.73 1.73 1.79 1.75 1.83 1.79 1.85 1.72 1.59 1.76 1.79 1.87 1.95 1.83 1.85 1.95 1.86 1.84 1.80 1.85 1.82 1.72 1.62 1.64 1.67 1.70 1.75 1.75 1.75 1.77 1.80 1.81 1.81
1.87 1.69 1.57 1.57 1.66 1.61 1.64 1.72 1.77 1.89 1.85 1.73 1.85 1.91 1.76 1.66 1.76 1.70 1.54 1.51 1.57 1.85 1.99 1.95 1.94 1.94 1.97 1.91 1.98 1.92 1.92 1.93 1.83 1.77 1.76 1.76 1.78 1.79 1.80 1.83 1.85 1.86 1.87
1.58 1.56 1.52 1.52 1.56 1.60 1.56 1.65 1.65 1.66 1.79 1.73 1.55 1.78 1.84 1.79 1.76 1.58 1.66 1.63 1.68 1.77 1.80 1.94 2.08 2.09 2.00 2.00 2.02 2.04 2.00 2.00 1.98 1.91 1.85 1.81 1.78 1.78 1.80 1.82 1.84 1.83 1.86
1.70 1.61 1.64 1.66 1.48 1.51 1.56 1.57 1.54 1.70 1.77 1.78 1.57 1.52 1.76 1.80 1.96 1.88 1.78 1.71 1.53 1.61 1.67 1.79 1.98 2.07 1.97 2.10 2.06 2.14 2.12 2.07 2.05 2.00 1.94 1.90 1.88 1.83 1.81 1.85 1.89 1.88 1.89
1.96 1.99 1.93 1.84 1.76 1.48 1.40 1.47 1.50 1.62 1.71 1.78 1.72 1.60 1.65 1.80 1.86 2.05 2.37 1.87 1.62 1.54 1.45 1.68 1.70 2.10 2.15 2.23 2.31 2.16 2.22 2.13 2.06 2.04 2.02 1.99 1.96 1.92 1.88 1.89 1.92 1.95 1.98
1.89 1.93 2.00 2.14 2.00 1.77 1.39 1.46 1.41 1.46 1.65 1.74 1.77 1.55 1.55 1.68 1.79 1.92 2.00 1.91 1.71 1.72 1.49 1.81 1.75 1.82 1.89 2.03 2.25 2.16 2.12 2.07 2.02 2.06 2.03 2.00 1.99 2.01 1.95 1.84 1.85 1.89 1.95
1.83 1.78 1.95 2.04 1.92 1.83 1.56 1.44 1.37 1.37 1.58 1.67 1.64 1.62 1.59 1.59 1.59 1.70 1.84 1.96 1.81 1.90 1.78 1.68 1.82 1.75 1.90 2.01 2.01 2.13 2.07 2.03 2.03 2.01 2.06 2.09 2.00 2.05 2.01 1.90 1.88 1.89 1.88
1.74 1.82 1.87 1.94 1.72 1.74 1.65 1.43 1.33 1.31 1.45 1.57 1.82 1.69 1.64 1.74 1.65 1.54 1.62 1.77 1.79 1.84 1.82 1.75 1.86 1.91 1.88 2.00 2.00 1.95 1.95 2.00 1.92 1.93 2.01 2.14 2.20 2.05 2.03 1.98 1.94 1.94 1.96
1.63 1.68 1.78 1.86 1.81 1.55 1.59 1.53 1.49 1.50 1.45 1.64 1.75 1.75 1.68 1.67 1.52 1.46 1.54 1.63 1.69 1.81 1.83 1.79 1.75 1.93 1.94 2.01 1.98 2.05 2.04 2.03 2.05 2.05 2.00 2.00 1.99 1.97 1.94 1.88 1.83 1.83 1.81
1.63 1.62 1.74 1.82 1.86 1.64 1.78 1.74 1.69 1.60 1.55 1.57 1.66 1.73 1.79 1.71 1.59 1.54 1.52 1.56 1.62 1.67 1.70 1.68 1.72 1.73 1.83 1.90 1.97 1.84 1.86 1.94 1.84 2.06 2.19 2.07 2.04 2.06 1.96 1.97 1.98 1.95 1.93
1.60 1.64 1.71 1.82 1.90 1.90 1.79 1.66 1.52 1.52 1.48 1.53 1.64 1.72 1.82 1.80 1.77 1.71 1.66 1.57 1.60 1.60 1.60 1.54 1.59 1.66 1.64 1.69 1.67 1.88 1.80 1.76 1.80 1.94 1.83 1.94 1.92 1.98 2.06 2.07 2.06 2.02 2.02
1.77 1.68 1.59 1.66 1.78 1.88 1.83 1.70 1.58 1.55 1.57 1.50 1.60 1.69 1.70 1.74 1.79 1.78 1.80 1.75 1.66 1.51 1.49 1.64 1.57 1.54 1.66 1.74 1.79 1.87 1.92 1.75 1.56 1.99 1.89 1.84 2.01 1.97 2.02 2.05 2.04 1.97 1.92
1.95 1.79 1.73 1.58 1.63 1.74 1.75 1.71 1.66 1.63 1.64 1.61 1.77 1.68 1.71 1.71 1.70 1.84 1.79 1.73 1.74 1.72 1.64 1.49 1.33 1.45 1.58 1.68 1.74 1.70 1.70 1.74 1.70 1.85 1.87 1.76 2.02 1.95 2.02 2.01 2.03 2.05 2.10
1.92 1.93 1.81 1.75 1.56 1.58 1.73 1.70 1.71 1.72 1.75 1.73 1.70 1.65 1.58 1.56 1.58 1.66 1.70 1.73 1.78 1.74 1.73 1.64 1.46 1.39 1.43 1.47 1.49 1.51 1.52 1.58 1.71 1.76 1.91 1.64 1.87 1.75 1.92 2.01 2.08 2.15 2.14
1.92 1.97 1.99 1.84 1.75 1.57 1.55 1.68 1.69 1.66 1.62 1.71 1.75 1.72 1.58 1.50 1.49 1.50 1.60 1.58 1.65 1.70 1.86 1.88 1.81 1.80 1.86 1.84 1.82 1.78 1.63 1.63 1.54 1.65 1.87 1.75 1.74 1.70 1.84 1.90 1.99 1.98 1.86
1.97 2.04 1.96 2.04 1.88 1.76 1.69 1.57 1.64 1.69 1.52 1.59 1.67 1.64 1.60 1.53 1.52 1.53 1.51 1.58 1.49 1.50 1.56 1.68 1.80 1.81 1.87 1.93 1.94 1.94 1.85 1.67 1.65 1.51 1.75 1.62 1.62 1.75 1.62 1.84 1.75 1.66 1.57